Chillicothe, MO

4:44 AM CST on February 21, 2017 (GMT -0600)
Chillicothe

Weather History for KCDJ - January, 2013

Change the Weather History Date:

Tuesday, January 8, 2013

  Actual Average (KIRK) Record (KIRK)
Temperature  
Mean Temperature 42 °F -  
Max Temperature 51 °F 29 °F 68 °F (2003)
Min Temperature 34 °F 11 °F -11 °F (1970)
Degree Days  
Heating Degree Days 22    
Moisture  
Dew Point 28 °F    
Average Humidity 65    
Maximum Humidity 76    
Minimum Humidity 44    
Precipitation  
Precipitation 0.00 in - - ()
Sea Level Pressure  
Sea Level Pressure 30.08 in    
Wind  
Wind Speed 8 mph (SSW)    
Max Wind Speed 12 mph    
Max Gust Speed -    
Averages and records for this station are not official NWS values.
T = Trace of Precipitation, MM = Missing Value Source: NWS Daily Summary

Daily Weather History Graph

Daily Weather History Graph

Search for Another Location

Airport or City:

Trip Planner

Search our weather history database for the weather conditions in past years. The results will help you decide how hot, cold, wet, or windy it might be!

Date:

Astronomy

Jan. 08, 2013 Rise Set
Actual Time 7:35 AM CST 5:07 PM CST
Civil Twilight 7:05 AM CST 5:37 PM CST
Nautical Twilight 6:32 AM CST 6:10 PM CST
Astronomical Twilight 5:59 AM CST 6:43 PM CST
Moon 4:09 AM CST (1/8) 2:09 PM CST (1/8)
Length of Visible Light 10h 31m
Length of Day
9h 31m
Waning Crescent, 13% of the Moon is Illuminated
Jan 8
Waning Crescent
Jan 11
New
Jan 18
First Quarter
Jan 26
Full
Feb 3
Last Quarter

Hourly Weather History & Observations

Time (CST) Temp. Windchill Dew Point Humidity Pressure Visibility Wind Dir Wind Speed Gust Speed Precip Events Conditions
12:52 AM 35.1 °F 30.1 °F 25.0 °F 67% 30.09 in - South 5.8 mph - N/A   Unknown
1:52 AM 34.0 °F 27.2 °F 25.0 °F 70% 30.10 in - South 8.1 mph - N/A   Unknown
2:52 AM 36.0 °F 29.0 °F 26.1 °F 67% 30.09 in - South 9.2 mph - N/A   Unknown
3:52 AM 34.0 °F 28.0 °F 25.0 °F 70% 30.09 in - South 6.9 mph - N/A   Unknown
4:52 AM 34.0 °F 26.6 °F 25.0 °F 70% 30.08 in - South 9.2 mph - N/A   Unknown
5:52 AM 34.0 °F 26.0 °F 26.1 °F 73% 30.07 in - South 10.4 mph - N/A   Unknown
6:52 AM 34.0 °F 26.6 °F 26.1 °F 73% 30.07 in - South 9.2 mph - N/A   Unknown
7:52 AM 34.0 °F 28.8 °F 26.1 °F 73% 30.09 in - South 5.8 mph - N/A   Unknown
8:52 AM 37.0 °F 29.3 °F 27.0 °F 67% 30.09 in - South 11.5 mph - N/A   Unknown
9:52 AM 37.0 °F 31.6 °F 27.0 °F 67% 30.10 in - South 6.9 mph - N/A   Unknown
11:52 AM 43.0 °F 37.2 °F 28.9 °F 58% 30.05 in - South 10.4 mph - N/A   Unknown
12:52 PM 46.0 °F 41.0 °F 30.0 °F 54% 30.02 in - South 10.4 mph - N/A   Unknown
1:52 PM 48.9 °F - 30.0 °F 48% 30.01 in - South 10.4 mph - N/A   Unknown
2:52 PM 51.1 °F - 30.0 °F 44% 30.01 in - South 11.5 mph - N/A   Unknown
3:52 PM 50.0 °F - 30.0 °F 46% 29.99 in - South 11.5 mph - N/A   Unknown
6:52 PM 44.1 °F 39.5 °F 30.9 °F 60% 30.06 in - SSW 8.1 mph - N/A   Unknown
7:52 PM 43.0 °F 38.8 °F 32.0 °F 65% 30.09 in - South 6.9 mph - N/A   Unknown
8:52 PM 41.0 °F 38.0 °F 32.0 °F 70% 30.10 in - South 4.6 mph - N/A   Unknown
9:52 PM 39.0 °F 34.8 °F 32.0 °F 76% 30.13 in - West 5.8 mph - N/A   Unknown
10:52 PM 39.9 °F 36.7 °F 30.9 °F 70% 30.16 in - SW 4.6 mph - N/A   Unknown
11:52 PM 39.0 °F 35.7 °F 30.0 °F 70% 30.20 in - West 4.6 mph - N/A   Unknown